Weather History for Covington, KY

Change the Weather History Date:

Tuesday, January 15, 2013

  Actual Average Record
Temperature  
Mean Temperature 28 °F 31 °F  
Max Temperature 32 °F 38 °F 66 °F (1932)
Min Temperature 24 °F 23 °F -11 °F (1972)
Degree Days  
Heating Degree Days 37 34  
Month to date heating degree days 430 510  
Since 1 July heating degree days 2296 2429  
Cooling Degree Days 0 0  
Month to date cooling degree days 0 0  
Year to date cooling degree days 0 0  
Moisture  
Dew Point 21 °F    
Average Humidity 74    
Maximum Humidity 81    
Minimum Humidity 66    
Precipitation  
Precipitation 0.01 in 0.10 in 1.46 in (1885)
Month to date precipitation 1.98 1.48  
Year to date precipitation 1.98 1.48  
Snow  
Snow 0.10 in 0.20 in 3.00 in (1918)
Month to date snowfall 0.3 2.9  
Since 1 July snowfall 7.9 8.5  
Snow Depth 0.00 in    
Sea Level Pressure  
Sea Level Pressure 30.27 in    
Wind  
Wind Speed 10 mph (NE)    
Max Wind Speed 17 mph    
Max Gust Speed 22 mph    
Visibility 8 miles    
Events Snow    
T = Trace of Precipitation, MM = Missing Value Source: NWS Daily Summary

Daily Weather History Graph

Daily Weather History Graph

Search for Another Location

Airport:

Trip Planner

Search our weather history database for the weather conditions in past years. The results will help you decide how hot, cold, wet, or windy it might be!

Date:

Astronomy

Jan. 15, 2013 Rise Set
Actual Time 7:56 AM EST 5:40 PM EST
Civil Twilight 7:26 AM EST 6:10 PM EST
Nautical Twilight 6:53 AM EST 6:42 PM EST
Astronomical Twilight 6:21 AM EST 7:14 PM EST
Moon 10:03 AM EST (1/15) 10:26 PM EST (1/15)
Length of Visible Light 10h 43m
Length of Day
9h 44m
Waxing Crescent, 19% of the Moon is Illuminated
Jan 15
Waxing Crescent
Jan 18
First Quarter
Jan 26
Full
Feb 3
Last Quarter
Feb 10
New

Hourly Weather History & Observations

Time (EST) Temp. Windchill Dew Point Humidity Pressure Visibility Wind Dir Wind Speed Gust Speed Precip Events Conditions
12:52 AM 25.0 °F 15.5 °F 19.9 °F 81% 30.35 in 6.0 mi North 9.2 mph - N/A   Haze
1:52 AM 25.0 °F 16.3 °F 19.9 °F 81% 30.35 in 7.0 mi North 8.1 mph - N/A   Overcast
2:52 AM 24.1 °F 13.7 °F 19.0 °F 81% 30.35 in 8.0 mi North 10.4 mph - N/A   Mostly Cloudy
3:52 AM 24.1 °F 14.4 °F 19.0 °F 81% 30.34 in 8.0 mi NNE 9.2 mph - N/A   Partly Cloudy
4:52 AM 24.8 °F 15.3 °F 19.4 °F 80% 30.32 in 7.0 mi NNE 9.2 mph - N/A   Clear
5:19 AM 24.8 °F 16.1 °F 19.4 °F 80% 30.32 in 7.0 mi NNE 8.1 mph - N/A   Overcast
5:52 AM 25.0 °F 14.8 °F 19.9 °F 81% 30.36 in 7.0 mi NNE 10.4 mph - N/A   Overcast
6:52 AM 25.0 °F 13.1 °F 19.9 °F 81% 30.36 in 7.0 mi NE 13.8 mph - N/A   Overcast
7:52 AM 25.0 °F 13.1 °F 19.9 °F 81% 30.36 in 8.0 mi NNE 13.8 mph 19.6 mph N/A   Overcast
8:52 AM 26.1 °F 14.5 °F 19.9 °F 78% 30.37 in 8.0 mi NE 13.8 mph - N/A   Mostly Cloudy
9:52 AM 26.1 °F 15.0 °F 21.0 °F 81% 30.36 in 8.0 mi ENE 12.7 mph - N/A   Overcast
10:52 AM 27.0 °F 18.0 °F 21.0 °F 78% 30.38 in 8.0 mi ENE 9.2 mph - N/A   Overcast
11:13 AM 28.4 °F 19.1 °F 21.2 °F 74% 30.33 in 8.0 mi East 10.4 mph - N/A   Overcast
11:52 AM 28.0 °F 18.1 °F 21.0 °F 75% 30.32 in 8.0 mi ENE 11.5 mph - N/A   Overcast
12:34 PM 28.4 °F 19.7 °F 21.2 °F 74% 30.26 in 8.0 mi ENE 9.2 mph - N/A   Overcast
12:52 PM 30.0 °F 21.1 °F 21.9 °F 72% 30.28 in 9.0 mi NE 10.4 mph - N/A   Mostly Cloudy
1:52 PM 30.9 °F 21.7 °F 21.9 °F 69% 30.25 in 9.0 mi NNE 11.5 mph - N/A   Overcast
2:52 PM 30.9 °F 22.2 °F 21.9 °F 69% 30.24 in 9.0 mi NNE 10.4 mph - N/A   Overcast
3:52 PM 32.0 °F 24.8 °F 23.0 °F 69% 30.26 in 9.0 mi North 8.1 mph - N/A   Overcast
4:52 PM 32.0 °F 23.0 °F 23.0 °F 69% 30.24 in 9.0 mi NNE 11.5 mph - N/A   Overcast
5:52 PM 30.9 °F 22.2 °F 23.0 °F 72% 30.22 in 9.0 mi NE 10.4 mph - N/A   Overcast
6:52 PM 30.9 °F 22.8 °F 23.0 °F 72% 30.21 in 9.0 mi NNE 9.2 mph - N/A   Overcast
7:52 PM 30.9 °F 22.8 °F 23.0 °F 72% 30.17 in 9.0 mi ENE 9.2 mph - N/A   Overcast
8:52 PM 30.9 °F 22.2 °F 23.0 °F 72% 30.13 in 10.0 mi ENE 10.4 mph - N/A   Overcast
9:12 PM 30.2 °F 21.3 °F 23.0 °F 75% 30.11 in 10.0 mi ENE 10.4 mph - N/A   Overcast
9:52 PM 32.0 °F 23.6 °F 24.1 °F 73% 30.11 in 10.0 mi ENE 10.4 mph - N/A   Overcast
10:52 PM 32.0 °F 24.2 °F 24.1 °F 73% 30.13 in 9.0 mi North 9.2 mph - N/A   Overcast
11:52 PM 30.9 °F 25.2 °F 25.0 °F 79% 30.10 in 2.5 mi NNE 5.8 mph - 0.01 in Snow Light Snow